Airfield :
LOGIN :

Register | Disclaimer

   EN    FR    IT 

 










Legend :    VFR   Marginal VFR   IFR   Intensive IFR   Very Intensive IFR
Visi :
Ceiling :
>= 8 km
>= 3000ft
5 to 8 km
1000 to 3000 ft
1500m to 5 km
500 to 1000 ft
800 to 1500m
200 to 500 ft
< 800m
< 200 ft
Symbols :   Thunderstorms  Fog  Heavy snow  Heavy precipitations  Wind > 20 kt
SIGMETs :     Misc.  Thunderstorms  Icing  Turbulence  Mountain Waves  Volcanic Ashes






- Airport Elevation : 388 ft
- IATA code : QYR


LFQB - Troyes Barberey

CURRENT METAR :
  • 161000Z AUTO 05012KT 010V080 9999 FEW043 09/M02 Q1025

EXPIRED METARs :
  • 160930Z AUTO 05011KT 9999 FEW040 09/M01 Q1025
  • 160900Z AUTO 05011KT 020V080 9999 FEW036 08/M01 Q1025
  • 160830Z AUTO 04009KT 010V070 CAVOK 07/M01 Q1026
  • 160800Z AUTO 05010KT CAVOK 06/M01 Q1026
  • 160730Z AUTO 04007KT 330V140 CAVOK 06/M01 Q1026
  • 160700Z AUTO 29007KT CAVOK 03/M00 Q1026

TAF N/A



MET'MAP, your aeronautical weather chart ! - Copyright ORBIFLY December 2007 - Disclaimer

ORBIFLY MET'MAP TEAM :

Programming & Development : Alexandra Zaïnal
Concept & original design : Baudouin d'Aumeries
Assistance for programming : Marc-Olivier Méhu
Technical & hardware support : Manuel Goepfert

Contact : metmap@orbifly.com




SOURCES & CREDITS :

   NOAA